CZ-6A DEB, 56253

Orbit data source: Space-Track

CZ-6A DEB, 56253 is space debris in SSO originally from a launch on Fri, 11 Nov 2022 UTC launched from the Taiyaun Space Center, China (TSC). Debris objects in space refer to the collection of defunct objects orbiting the Earth. Examples of debris include non-operational satellites, rocket bodies, and fragments generated from explosions, collisions, or faulty payload assembly.

Loading next visibility...
Identifier
56253, 2022-151ABV
Orbit
SSO
Country
Flag of CNCN / PRC
Related business
Manufacturer
SAST
Mission
Spacecraft
Bus & Motor
Unknown
Mass
Unknown
Launch date (UTC)
2022-11-11 (4 years ago)
Launch vehicle
Unknown
Launch site
Taiyaun Space Center, China (TSC)
Object type
Payload
Rocket body
Debris
Shape & HBR
Unknown shape, 0.1 m
Radar Cross Section
Small (<0.1 m²)

Expand to show TLE details & history
Last TLE update: 2 days ago

TLE from 2 days ago
0 CZ-6A DEB
1 56253U 22151ABV 26171.00427773  .00001483  00000-0  70503-3 0  9993
2 56253  98.8136 185.2638 0027882 293.3261  66.4982 14.20760431174201
Epoch: 2026-06-20T00:06Z
TLE epoch observation values (Epoch: 2026-06-20T00:06:09.595Z)
Latitude
-0.00007°
Longitude
-84.5013°
Altitude
817.733 km
Speed
7.448 km/s
True Right ascension
12h 21m 03s
True Declination
0° 00' 00"
Sunlit
Object was in daylight at epoch
Visualization orbit readout
Latitude
Unknown
Longitude
Unknown
Altitude
Unknown
Speed
Unknown
Apparent Right ascension
Unknown
Apparent Declination
Unknown
Sunlit
N/A
Visualization observer readout
Local Sidereal Time
21:38:43
Azimuth
Unknown
Elevation
Unknown
Doppler factor
Unknown
Orbital elements
Apogee altitude
840.014 km
Perigee altitude
799.875 km
Semi-major axis
7,198.082 km
Eccentricity
0.00279
Inclination
98.8136°
RAAN
185.2638°
Arg. of periapsis
293.3261°
True anomaly
66.79161°
Mean anomaly
66.4982°
Eccentric anomaly
66.64486°
Mean motion
3.554 °/min
Orbital period
101.29 mins
BSTAR
0.00070503
Loading maneuver chart data...
Computing Atmospheric mass density...
Loading historical data...
Loading historical data...
Loading historical data...
Loading historical data...
Loading historical data...
Loading historical data...
Loading historical data...

Documentation

Showing up to 5 results
|